Skip Page Navigation
NASA JPL Caltech
NASA Logo - Jet Propulsion Laboratory + View the NASA Portal
+ Center for Near-Earth Object Studies
JPL Home Earth Solar System Stars & Galaxies Technology
JPL Solar System Dynamics
BODIES ORBITS EPHEMERIDES TOOLS PHYSICAL DATA DISCOVERY FAQ SITE MAP
IMPORTANT: The SSD Announcement email list is now available. Major changes are coming in the near future, including possible hostname and/or URL changes. To be notified of such changes, subscribe to this email list.

Please visit this page for more details.


JPL Small-Body Database Browser
Search: [ help ]  
35222 Delbarrio (1994 XD6)
Classification: Main-belt Asteroid          SPK-ID: 2035222
Ephemeris | Orbit Diagram | Orbital Elements | Mission Design | Physical Parameters | Discovery Circumstances ]

[ show orbit diagram ]
Orbital Elements at Epoch 2459000.5 (2020-May-31.0) TDB
Reference: JPL 26 (heliocentric ecliptic J2000)
 Element Value Uncertainty (1-sigma)   Units 
e .05771531094490965 3.3366e-08  
a 2.30635342273112 8.6054e-09 au
q 2.173241517789336 7.8783e-08 au
i 7.196948460388128 4.0121e-06 deg
node 75.30396736305076 3.0012e-05 deg
peri 128.7903031097791 4.715e-05 deg
M 333.7522904740944 3.6918e-05 deg
tp 2459093.777334149957
(2020-Sep-01.27733415)
0.00013127 TDB
period 1279.343641807764
3.50
7.1602e-06
1.96e-08
d
yr
n .2813942933200541 1.5749e-09 deg/d
Q 2.439465327672902 9.102e-09 au
  Orbit Determination Parameters
   # obs. used (total)      1924  
   data-arc span      10842 days (29.68 yr)  
   first obs. used      1990-08-22  
   last obs. used      2020-04-28  
   planetary ephem.      DE431  
   SB-pert. ephem.      SB431-N16  
   condition code      0  
   norm. resid. RMS      .48349  
   source      ORB  
   producer      Otto Matic  
   solution date      2020-May-20 08:04:02  

Additional Information
 Earth MOID = 1.17497 au 
 Jupiter MOID = 2.53297 au 
 T_jup = 3.575 
[ show covariance matrix ]

Ephemeris | Orbit Diagram | Orbital Elements | Mission Design | Physical Parameters | Discovery Circumstances ]

Physical Parameter Table
Parameter Symbol Value Units Sigma Reference Notes
absolute magnitude H 14.7   n/a MPO358954  
diameter diameter 2.641 km 0.126 urn:nasa:pds:neowise_diameters_albedos::2.0[mainbelt] (http://adsabs.harvard.edu/abs/2011ApJ...741...68M)  
geometric albedo albedo 0.216   0.030 urn:nasa:pds:neowise_diameters_albedos::2.0[mainbelt] (http://adsabs.harvard.edu/abs/2011ApJ...741...68M)  

35222 Delbarrio           Discovered 1994 Dec. 4 by M. Tombelli at Cima Ekar.
Bianca Del Barrio (1943-2006) was the wife of Francesco Gallotti, a member of the Montelupo Astronomical Group.
NOTE: some special characters may not display properly (any characters within {} are an attempt to place the proper accent above a character)
Reference: 20070106/MPCPages.arcLast Updated: 2007-01-09

Alternate Designations
 1994 XD6 = 1996 KW3 = 1999 CF96 = 2001 VL34 
Ephemeris | Orbit Diagram | Orbital Elements | Mission Design | Physical Parameters | Discovery Circumstances ]
ABOUT SSD CREDITS/AWARDS PRIVACY/COPYRIGHT GLOSSARY LINKS
FirstGov 2020-May-26 00:09 UT
(server date/time)  
NASA Home Page
Site Manager:   Ryan S. Park
Webmaster  Alan B. Chamberlin